Showing default

FLOCK 4Q 12, 58275

Orbit data source: Space-Track

FLOCK 4Q 12, 58275 is a payload satellite owned by Planet (US) in SSO that was launched on Sat, 11 Nov 2023 UTC via an FALCON 9 launch vehicle from the Air Force Western Test Range (AFWTR). Payload-class satellites include a variety of spacecraft equipped with specific instruments for various scientific and technological missions. These include communications satellites like Starlink; space stations such as the ISS; scientific satellites like the Hubble; Earth observation satellites from companies like Planet Labs, Umbra, and HawkEye 360; GPS; miniature CubeSats for education and research; and military/defense satellites.

Not visible in the next 10 days
Identifier
58275, 2023-174V
Orbit
SSO
Country
Flag of USUS
Related business
Manufacturer
Planet
Mission
Non-operational Commercial Imaging
Bus & Motor
CUBESAT 3U, Unknown motor
Mass
5.7 kg wet, 5.7 kg dry
Launch date (UTC)
2023-11-11 (2 years ago)
Launch vehicle
FALCON 9
Launch site
Air Force Western Test Range (AFWTR)
Object type
Payload
Rocket body
Debris
Shape & HBR
Box + 2 Pan, 1.0 m
Radar Cross Section
0.072 m², Medium (>0.1 m² and < 1m²)

Expand to show TLE details & history
Last TLE update: 9 hours ago

TLE from 9 hours ago
0 FLOCK 4Q 12
1 58275U 23174V   26126.82585820  .00092948  00000-0  99875-3 0  9992
2 58275  97.3822 218.0879 0004847 260.3399  99.7312 15.63450192139448
Epoch: 2026-05-06T19:49Z
TLE epoch observation values (Epoch: 2026-05-06T19:49:14.148Z)
Latitude
-0.00004°
Longitude
56.09817°
Altitude
381.405 km
Speed
7.681 km/s
True Right ascension
14h 32m 21s
True Declination
0° 00' 00"
Sunlit
Object was in full shadow at epoch
Visualization orbit readout
Latitude
Unknown
Longitude
Unknown
Altitude
Unknown
Speed
Unknown
Apparent Right ascension
Unknown
Apparent Declination
Unknown
Sunlit
N/A
Visualization observer readout
Local Sidereal Time
13:07:48
Azimuth
Unknown
Elevation
Unknown
Doppler factor
Unknown
Orbital elements
Apogee altitude
377.88 km
Perigee altitude
371.334 km
Semi-major axis
6,752.744 km
Eccentricity
0.00048
Inclination
97.3822°
RAAN
218.0879°
Arg. of periapsis
260.3399°
True anomaly
99.78594°
Mean anomaly
99.7312°
Eccentric anomaly
99.75857°
Mean motion
3.91131 °/min
Orbital period
92.04 mins
BSTAR
0.00099875
Loading maneuver chart data...
Computing Atmospheric mass density...
Loading historical data...
Loading historical data...
Loading historical data...
Loading historical data...
Loading historical data...
Loading historical data...
Loading historical data...

Documentation

Showing up to 5 results
|